Location: Le Petit-Vavre
(46.5081°N, 1.5239°E)
Time: 19:48:36
(UTC+00:00)

MOS 1 - Pass Details

Date: 03 March 2021
Orbit: 878 x 891 km, 99.1° (Epoch: 21 April)

Event Time Altitude Azimuth Distance (km) Brightness Sun altitude
Exits shadow 19:26:07 23° 138° (SE) 1,784 5.4 -18.5°
Maximum altitude 19:29:33 56° 69° (ENE) 1,049 4.4 -19.1°
Drops below altitude 10° 19:35:05 10° 353° (N) 2,558 6.9 -20.0°
Sets 19:37:31 0° 349° (N) 3,500 7.7 -20.4°
